Location: ??????
(31.2056°N, 45.3906°E)
Time: 15:48:44
(UTC+00:00)

Cosmos 2366 rocket - Pass Details

Date: 09 April 2020
Orbit: 955 x 997 km, 82.9° (Epoch: 26 May)

Event Time Altitude Azimuth Distance (km) Brightness Sun altitude
Rises 17:56:11 0° 354° (N) 3,638 7.5 -31.2°
Reaches altitude 10° 17:58:40 10° 355° (N) 2,691 6.7 -31.6°
Enters shadow 18:03:28 57° 358° (N) 1,116 4.3 -32.5°
